Sigla Aeroporto Press.
(hPa)
Vento
(°)/(Km/h)
T
(C)
Td
(C)
Umid.
Rel.
(%)
Visibilidade
(Km)
Nebulosidade Condições do Tempo Horário
Medição
SBAA CONCEIÇÃO ARAGUAIA BRASIL 1013 110/11.1 22 21 94 >= 10 Encoberto trovoadas com chuva leve 2018-01-22 12:00 GMT
SBAF AFONSOS ARPT (MIL) BRASIL 1011 120/5.6 33 24 59 >= 10 Predominantemente claro - 2018-01-22 13:00 GMT
SBAM AMAPA AIRPORT BRASIL 1009 Ventos calmos 31 22 58 >= 10 Parcialmente nublado - 2011-10-13 18:00 GMT
SBAN ANAPOLIS (BRAZ-AFB) BRASIL 1018 30/9.3 27 13 42 >= 10 Predominantemente claro - 2018-01-22 13:00 GMT
SBAR ARACAJU/SANTA MARIA BRASIL 1013 90/29.6 29 21 62 >= 10 Parcialmente nublado - 2018-01-22 13:00 GMT
SBAT ALTA FLORESTA BRASIL 1012 240/3.7 26 24 88 >= 10 - - 2018-01-22 12:00 GMT
SBAU ARAÇATUBA BRASIL 1013 240/5.6 - - - >= 10 Predominantemente claro - 2018-01-19 22:00 GMT
SBBE BELEM/VAL DE CAES BRASIL 1011 70/20.4 28 23 74 >= 10 Nublado - 2018-01-22 13:00 GMT
SBBG BAGE/CMDT KRAEMER BRASIL 1007 290/16.7 23 21 88 >= 10 Nublado chuvisco leve 2018-01-22 13:00 GMT
SBBH BELO HORIZ/PAMPULHA BRASIL 1017 90/7.4 28 15 45 >= 10 - - 2018-01-22 12:00 GMT
SBBI CURITIBA/BACACHERI BRASIL 1016 330/11.1 25 18 65 >= 10 - - 2018-01-22 13:00 GMT
SBBQ BARBACENA (CIV/MIL) BRASIL 1020 40/13 22 16 68 >= 10 - - 2018-01-22 12:00 GMT
SBBR BRASILIA (CIV/MIL) BRASIL 1018 60/24.1 27 13 42 >= 10 - - 2018-01-22 13:00 GMT
SBBU BAURU BRASIL 1015 40/11.1 29 24 74 >= 10 - - 2018-01-22 12:00 GMT
SBBV BOA VISTA (CIV/MIL) BRASIL 1013 90/22.2 28 20 61 >= 10 Nublado - 2018-01-22 13:00 GMT
SBBW BERRA DO GARCAS BRASIL 1012 50/3.7 26 24 88 >= 10 - - 2018-01-22 12:00 GMT
SBCB SAO PAULO/CUMBIC AB BRASIL 1011 60/37.1 30 24 70 >= 10 - - 2018-01-22 13:00 GMT
SBCC CACHIMBO BRASIL 1014 290/3.7 28 21 65 >= 10 Predominantemente claro - 2018-01-22 13:00 GMT
SBCF BELO HORIZ/TANCREDO BRASIL 1017 70/9.3 27 15 47 >= 10 - - 2018-01-22 13:00 GMT
SBCG CAMPO GRANDE INTL BRASIL 1014 340/9.3 28 22 69 >= 10 Parcialmente nublado - 2018-01-22 13:00 GMT
SBCI CAROLINA AIRPORT BRASIL 1012 80/1.9 27 23 78 >= 10 Nublado - 2018-01-22 13:00 GMT
SBCJ CARAJAS/MARABA BRASIL 1015 60/7.4 24 21 83 >= 10 Nublado - 2018-01-22 13:00 GMT
SBCO PORTO ALEGRE/CANOAS BRASIL 1008 340/13 22 21 94 3.0 Encoberto trovoadas com chuva moderada 2018-01-22 13:00 GMT
SBCP CAMPOS/BARTOLOMEU BRASIL 1012 100/22.2 32 19 46 >= 10 - - 2018-01-22 13:00 GMT
SBCR CORUMBA INTL ARPT BRASIL 1010 280/11.1 30 24 70 >= 10 - - 2018-01-22 13:00 GMT
SBCT CURITIBA/AFONSO PENA BRASIL 1016 10/13 26 20 69 >= 10 - - 2018-01-22 13:00 GMT
SBCV CARAVELAS AIRPORT BRASIL 1012 20/18.5 25 22 83 >= 10 - - 2008-10-27 22:00 GMT
SBCY CUIABA/MARECHAL RON BRASIL 1012 320/11.1 31 20 52 >= 10 - - 2018-01-22 13:00 GMT
SBCZ CRUZEIRO DO SUL BRASIL 1013 120/1.9 23 21 88 >= 10 Nublado - 2018-01-22 13:00 GMT
SBDN PRESIDENTE PRUDENTE BRASIL 1013 40/7.4 30 18 48 >= 10 - - 2018-01-22 13:00 GMT
SBEG EDUARDO GOMES INTL BRASIL 1012 10/16.7 26 23 83 >= 10 Parcialmente nublado - 2018-01-22 13:00 GMT
SBEK JACAREACANGA BRASIL 1012 120/3.7 29 25 79 >= 10 - - 2018-01-22 13:00 GMT
SBES SAO PEDRO DA ALDEIA BRASIL 1011 60/35.2 30 21 58 >= 10 - - 2018-01-22 13:00 GMT
SBFI FOZ DO IGUACU ARPT BRASIL 1010 360/9.3 27 23 78 >= 10 Parcialmente nublado - 2018-01-22 13:00 GMT
SBFL FLORIANOPOLIS ARPT BRASIL 1009 350/18.5 25 22 83 >= 10 Nublado - 2018-01-22 13:00 GMT
SBFN FERNANDO DE NORONHA BRASIL 1011 130/24.1 28 24 78 >= 10 Nublado - 2018-01-22 13:00 GMT
SBFZ FORTALEZA/PINTO MAR BRASIL 1011 130/18.5 29 23 70 >= 10 Nublado - 2018-01-22 13:00 GMT
SBGL GALEAO/RIO(CIV/MIL) BRASIL 1010 60/11.1 31 23 62 >= 10 Parcialmente nublado - 2018-01-22 13:00 GMT
SBGO GOIANIA/SANTA GENOV BRASIL 1015 300/7.4 29 18 51 >= 10 - - 2018-01-22 13:00 GMT
SBGP GUARAPUAVA BRASIL 1014 330/14.8 27 21 69 >= 10 Nublado - 2013-01-25 13:00 GMT
SBGR GUARULHOS (CIV/MIL) BRASIL 1016 70/11.1 27 20 65 >= 10 Predominantemente claro - 2018-01-22 13:00 GMT
SBGW GUARATINGUETA (MIL) BRASIL 1014 -/5.6 27 20 65 >= 10 Nublado - 2018-01-22 13:00 GMT
SBHT ALTAMIRA BRASIL 1012 60/13 28 24 78 >= 10 Nublado - 2018-01-22 13:00 GMT
SBIC ITACOATIARA BRASIL 1009 Ventos calmos 25 24 94 >= 10 Nublado - 2018-01-19 21:00 GMT
SBIH ITAITUBA BRASIL 1011 90/5.6 29 24 74 >= 10 Parcialmente nublado - 2018-01-22 13:00 GMT
SBIL ILHEUS AIRPORT BRASIL 1014 110/7.4 28 23 74 >= 10 Parcialmente nublado - 2018-01-22 12:00 GMT
SBIZ IMPERATRIZE BRASIL 1011 140/5.6 28 24 78 >= 10 Nublado - 2018-01-22 12:00 GMT
SBJF JUIZ FORA/FRANCISCO BRASIL 1022 360/5.6 15 13 87 >= 10 - - 2017-08-08 01:00 GMT
SBJP JOAO PESSOA/PRES CA BRASIL 1012 110/27.8 29 21 62 >= 10 Nublado - 2018-01-22 13:00 GMT
SBJR RIO/JACAREPAGUA BRASIL 1010 140/7.4 31 26 74 >= 10 Predominantemente claro - 2018-01-22 12:00 GMT
SBJV JOINVILLE BRASIL 1010 50/5.6 27 24 83 >= 10 - - 2018-01-22 13:00 GMT
SBKG CAMPINA GRANDE BRASIL 1015 110/24.1 24 20 78 >= 10 Nublado - 2018-01-22 12:00 GMT
SBKP CAMPINAS/VIRACOPOS BRASIL 1015 40/5.6 27 19 61 >= 10 - - 2018-01-22 13:00 GMT
SBLB LABREA-IN-AMAZONAS BRASIL 1014 60/29.6 30 23 66 >= 10 Parcialmente nublado - 2018-01-22 13:00 GMT
SBLN LINS BRASIL 1012 90/18.5 22 21 94 5.0 Nublado trovoadas com chuva leve 2008-01-11 08:00 GMT
SBLO LONDRINA AIRPORT BRASIL 1014 100/9.3 28 22 69 >= 10 Predominantemente claro - 2018-01-22 13:00 GMT
SBLP BOM JESUS DA LAPA BRASIL 1013 120/9.3 31 16 40 >= 10 - - 2018-01-22 12:00 GMT
SBLS LAGOA SANTA(CV/MIL) BRASIL 1017 -/9.3 28 15 45 >= 10 Predominantemente claro - 2018-01-22 13:00 GMT
SBMA MARABA BRASIL 1012 10/11.1 30 25 74 >= 10 Nublado - 2018-01-22 13:00 GMT
SBMD MONTE DOURADO BRASIL 1012 360/7.4 27 23 78 >= 10 Parcialmente nublado - 2018-01-22 13:00 GMT
SBME MACAE BRASIL 1011 360/18.5 35 21 44 >= 10 - - 2018-01-22 13:00 GMT
SBMG MARINGA BRASIL 1014 310/1.9 23 22 94 5.01.4 ao Sudoeste Predominantemente claro chuva leve e névoa úmida 2018-01-22 13:00 GMT
SBMK MONTES CLAROS BRASIL 1016 70/11.1 27 15 47 >= 10 - - 2018-01-22 12:00 GMT
SBMN MANAUS/PONTA PELADA BRASIL 1011 40/14.8 27 23 78 >= 10 Parcialmente nublado - 2018-01-22 13:00 GMT
SBMO MACEIO/CAMPO PALMAR BRASIL 1013 110/24.1 28 22 69 >= 10 Nublado - 2018-01-22 13:00 GMT
SBMQ MACAPA INTL AIRPORT BRASIL 1011 40/11.1 31 24 66 >= 10 Nublado - 2018-01-22 13:00 GMT
SBMS MOCORO/17 ROSADO BRASIL 1011 130/16.7 31 20 52 >= 10 Predominantemente claro - 2018-01-22 12:00 GMT
SBMT MARTE (CIV/MIL) BRASIL 1016 110/7.4 27 19 61 >= 10 - - 2018-01-22 13:00 GMT
SBMY MANICORE BRASIL 1012 Ventos calmos 28 25 83 >= 10 Nublado - 2018-01-22 13:00 GMT
SBNT NATAL/AUGUSTO SEVER BRASIL 1011 130/29.6 30 22 62 >= 10 Nublado - 2018-01-22 13:00 GMT
SBOI OIAPOQUE BRASIL 1012 30/9.3 27 24 83 >= 10 Nublado - 2018-01-22 13:00 GMT
SBPA PORTO ALEGRE/SALGAD BRASIL - 320/16.7 22 21 94 4.0 Encoberto trovoadas com chuva leve 2018-01-22 13:00 GMT
SBPB PARNAIBA AIRPORT BRASIL 1010 90/20.4 30 25 74 >= 10 Parcialmente nublado - 2018-01-22 13:00 GMT
SBPC POCOS DE CALDAS BRASIL 1020 190/13 26 17 57 >= 10 - - 2018-01-22 13:00 GMT
SBPF PASSO FUNDO/LAURO BRASIL 1011 50/29.6 24 20 78 >= 10 Nublado - 2018-01-22 12:00 GMT
SBPK PELOTAS BRASIL 1006 310/9.3 27 22 74 >= 10 Nublado - 2018-01-22 13:00 GMT
SBPL PETROLINA AIRPORT BRASIL 1014 120/20.4 30 15 40 >= 10 - - 2018-01-22 13:00 GMT
SBPN PORTO NACIONAL ARPT BRASIL 1012 300/9.3 28 24 78 >= 10 - - 2015-11-11 11:15 GMT
SBPP PONTA PORA INTL BRASIL 1013 270/14.8 29 22 66 >= 10 - - 2018-01-22 13:00 GMT
SBPV PORTO VELHO(CV/MIL) BRASIL 1011 230/3.7 27 23 78 >= 10 Predominantemente claro - 2018-01-22 13:00 GMT
SBQU VITORIA DA CONQUIST BRASIL - 360/1.9 - - - >= 10 - - 2008-07-23 03:00 GMT
SBQV VITORIA DA CONQUIST BRASIL 1022 110/18.5 27 11 36 >= 10 Predominantemente claro - 2011-09-12 17:00 GMT
SBRB RIO BRANCO/MEDICI BRASIL 1012 260/7.4 27 22 74 >= 10 - - 2018-01-22 13:00 GMT
SBRF RECIFE/GUARARAPES BRASIL 1012 130/24.1 29 22 66 >= 10 Parcialmente nublado - 2018-01-22 13:00 GMT
SBRJ SANTOS DUMONT/RIO BRASIL 1010 160/11.1 32 26 70 7.0 Predominantemente claro - 2018-01-22 13:00 GMT
SBRP LEITE LOPES/RIBEIR& BRASIL 1014 110/5.6 30 19 51 >= 10 - - 2018-01-22 13:00 GMT
SBSC SANTA CRUZ (MIL) BRASIL 1010 20/18.5 32 22 55 >= 10 Nublado - 2018-01-22 13:00 GMT
SBSJ SAO JOSE DOS CAMPO& BRASIL 1015 340/3.7 27 21 69 >= 10 Nublado - 2018-01-22 13:00 GMT
SBSL SAO LUIS/MARECHAL BRASIL 1010 40/22.2 29 25 79 >= 10 Nublado - 2018-01-22 13:00 GMT
SBSM SANTA MARIA(CV/MIL) BRASIL 1007 -/1.9 23 21 88 >= 10 Nublado trovoadas sem precipitaçoes e pancadas nas vizinhanças 2018-01-22 12:00 GMT
SBSN SANTAREM INTL ARPT BRASIL 1011 80/14.8 28 24 78 >= 10 Predominantemente claro - 2018-01-22 13:00 GMT
SBSP SAO PAULO/CONGONHAS BRASIL 1017 120/7.4 27 18 57 >= 10 - - 2018-01-22 13:00 GMT
SBST SANTOS (BRAZ-AFB) BRASIL 1011 -/3.7 30 23 66 >= 10 - - 2018-01-22 13:00 GMT
SBSV SALVADOR/DOIS JULHO BRASIL 1014 100/18.5 30 22 62 >= 10 Parcialmente nublado - 2018-01-22 13:00 GMT
SBSY SANTA ISABEL MORRO BRASIL 1015 -/3.7 28 20 61 >= 10 - - 2018-01-22 12:00 GMT
SBTA TAUBATE BRASIL 1014 -/7.4 26 23 83 >= 10 - - 2018-01-22 13:00 GMT
SBTC TAPURUCUARA BRASIL 1013 100/11.1 29 23 70 >= 10 Predominantemente claro - 2018-01-21 20:00 GMT
SBTE TERESINA AIRPORT BRASIL 1011 30/9.3 28 23 74 >= 10 Parcialmente nublado - 2018-01-22 13:00 GMT
SBTF TEFE BRASIL 1012 170/7.4 25 24 94 >= 10 Nublado - 2018-01-22 13:25 GMT
SBTK TARAUACA BRASIL 1013 270/7.4 23 23 100 >= 10 Encoberto - 2018-01-22 12:00 GMT
SBTT TABATINGA INTL ARPT BRASIL 1013 260/9.3 25 22 83 >= 10 Nublado - 2018-01-22 13:00 GMT
SBTU TUCURUI BRASIL 1013 - - - - >= 10 Parcialmente nublado - 2018-01-22 13:00 GMT
SBUA SAO GABRIEL CACHOEI BRASIL 1006 100/7.4 31 24 66 >= 10 Predominantemente claro - 2018-01-21 20:00 GMT
SBUF PAULO AFONSO BRASIL 1014 110/22.2 31 19 48 >= 10 Nublado - 2018-01-22 12:00 GMT
SBUG URUGUAIANA/RUBEM BRASIL 1006 200/11.1 24 23 94 >= 10 Encoberto - 2018-01-22 13:00 GMT
SBUL UBERLANDIA BRASIL 1017 70/13 27 14 44 >= 10 - - 2018-01-22 12:00 GMT
SBUP URUBUPUNGA/CASTILHO BRASIL 1011 270/16.7 25 20 73 >= 10 Encoberto trovoadas sem precipitaçoes 2007-11-07 22:00 GMT
SBUR UBERABA BRASIL 1016 30/11.1 29 16 45 >= 10 - - 2018-01-22 12:00 GMT
SBVH VILHENA BRASIL 1015 300/9.3 27 22 74 >= 10 Parcialmente nublado - 2018-01-22 13:00 GMT
SBVT VITORIA/GOIABEIRAS BRASIL 1014 30/22.2 31 21 55 >= 10 Predominantemente claro - 2018-01-22 13:00 GMT
SBYA IAUARETE (PRIVATE) BRASIL 1008 230/5.6 31 23 62 >= 10 Parcialmente nublado - 2015-11-06 19:00 GMT
SBYS PIRASSUNUNGA/CAMPO BRASIL 1014 70/3.7 28 20 61 >= 10 - - 2018-01-22 12:00 GMT